Dinard-Pleurtuit-Saint-Malo Airport

Jump to: basic info | weather | frequencies | runways | comments

Related pages: nearby airports | nearby navaids | notams | map

Basic information (top)

Codes: DNR LFRD
Location: lon 48.587700, lat -2.079960, elev 219 ft / 67 m msl
Status: medium_airport
Scheduled airline service: yes
Links: Wikipedia Mobile

Weather (top)

Current conditions (rec'd 2014/11/01 11:00Z):

LFRD 011100Z AUTO 24007KT 210V270 9999 NSC 18/12 Q1019

Airport forecast (rec'd 2014/11/01 06:15Z):

TAF LFRD 010500Z 0106/0206 21005KT 9999 BKN015 
      TEMPO 0106/0109 3000 RADZ BKN005 
      BECMG 0110/0112 SCT020 
      BECMG 0112/0115 21012KT 
      BECMG 0201/0203 19020G30KT 
      BECMG 0204/0206 5000 RA BKN015

Frequencies (top)

Verify before use: may be inaccurate or out of date.

ATIS: 124.575 MHz (DINARD ATIS)
TWR: 120.15 MHz (DINARD TWR)

Runways (top)

12/30: 4,708 x 148 ft (1,435 x 45 m) — paved — not lighted — threshold 30 displaced 476 ft (145 m)

17/35: 7,218 x 148 ft (2,200 x 45 m) — paved — lighted

Latest comments (top)

No comments yet for Dinard-Pleurtuit-Saint-Malo Airport

More... (top)

See also NOTAMs and nearby airports and navaids, or visit the Dinard-Pleurtuit-Saint-Malo Airport page at the main OurAirports website..